Regional Weather Roundup
Issued by NWS

Home | Current Version | Previous Version | Text Only | Print | Product List | Glossary Off
Versions: 1 2 3 4 5 6 7 8 9 10 11 12 13 14 15 16 17 18 19 20 21 22 23 24 25 26 27 28 29 30 31 32 33 34 35 36 37 38 39 40 41 42 43 44 45 46 47 48 49 50

000
ASUS43 KFSD 280310
RWRSD

WEATHER ROUNDUP FOR SOUTH DAKOTA
NATIONAL WEATHER SERVICE SIOUX FALLS SD
900 PM CST TUE JAN 27 2015

NOTE: "FAIR" INDICATES FEW OR NO CLOUDS BELOW 12,000 FEET WITH NO
SIGNIFICANT WEATHER AND/OR OBSTRUCTIONS TO VISIBILITY.


SDZ001>005-009-010-012>017-280400-
NORTHWEST AND NORTH CENTRAL SOUTH DAKOTA

CITY           SKY/WX    TMP DP  RH WIND       PRES   REMARKS
BUFFALO          N/A     51  31  46 SW6       29.76S
FAITH            N/A     52  31  44 SE10      29.81F
MOBRIDGE       CLEAR     38  33  82 SE8       29.79F
$$

SDZ012>016-024>037-041>051-057-063-072>074-280400-
SOUTHWEST AND SOUTH CENTRAL SOUTH DAKOTA

CITY           SKY/WX    TMP DP  RH WIND       PRES   REMARKS
RAPID CTY ARPT CLOUDY    51  27  39 W6        29.83F
PIERRE         CLEAR     38  32  79 E7        29.81F
CUSTER         MOCLDY    50  23  34 W10G18    29.93F
ELLSWORTH AFB  CLEAR     48  29  48 SW6       29.82F
PHILIP         MOCLDY    44  28  53 CALM      29.81S
PINE RIDGE     CLOUDY    36  28  73 SE3       29.89F
SPEARFISH      FAIR      48  28  46 W8        29.87F
WINNER         FAIR      42  34  73 S6        29.84F
$$

SDZ004>011-016>023-039-040-280400-
NORTHEAST SOUTH DAKOTA

CITY           SKY/WX    TMP DP  RH WIND       PRES   REMARKS
ABERDEEN       CLEAR     34  31  88 S13       29.88F WCI  25
WATERTOWN      CLEAR     34  32  92 S15       29.91F WCI  24
SISSETON         N/A     32  32 100 S13       29.94S WCI  22
$$

SDZ017-020-022-023-036>040-048>070-280400-
SOUTHEAST SOUTH DAKOTA

CITY           SKY/WX    TMP DP  RH WIND       PRES   REMARKS
SIOUX FALLS    CLEAR     37  33  85 SE10      29.97F
HURON          CLEAR     36  33  89 SE13      29.89F
CHAMBERLAIN    CLEAR     37  33  87 E8        29.85F
MITCHELL       CLEAR     37  33  85 SE13      29.91F
YANKTON        CLEAR     37  30  75 SE10      29.96F
$$

ABBREVIATIONS USED IN REMARKS
   TC - TEMPERATURE IN CELSIUS
  WCI - WIND CHILL INDEX
   HX - HEAT INDEX
  VSB - VISIBILITY



USA.gov is the U.S. government's official web portal to all federal, state and local government web resources and services.